GW1000 Weather Reports


Display with metric or nautical units.
time (UTC)temp
F
wind
direction
speed
MPH
gust
MPH
rain 1hr
in
rain 24hr
in
rain mn
in
humidity
%
barometer
mb
20260504200308 60 314 2.0 5.0 0.00 0.00 0.00 69 1012.4
20260504195804 60 295 3.0 8.0 0.00 0.00 0.00 68 1012.3
20260504195300 60 267 3.0 5.0 0.00 0.00 0.00 68 1012.3
20260504194757 61 258 5.0 7.0 0.00 0.00 0.00 68 1012.5
20260504194253 61 280 5.0 7.0 0.00 0.00 0.00 68 1012.5
20260504193749 61 318 7.0 9.0 0.00 0.00 0.00 68 1012.5
20260504193247 61 247 3.0 6.0 0.00 0.00 0.00 68 1012.6
20260504192745 61 254 8.0 13.0 0.00 0.00 0.00 67 1012.4
20260504192243 60 248 2.0 3.0 0.00 0.00 0.00 66 1012.4
20260504191741 60 268 3.0 3.0 0.00 0.00 0.00 66 1012.5
20260504191238 60 247 2.0 3.0 0.00 0.00 0.00 67 1012.6
20260504190733 60 191 1.0 2.0 0.00 0.00 0.00 66 1012.6
20260504190230 60 291 3.0 3.0 0.00 0.00 0.00 66 1012.5
20260504185726 60 251 3.0 5.0 0.00 0.00 0.00 66 1012.5
20260504185224 60 264 6.0 7.0 0.00 0.00 0.00 67 1012.4
20260504184719 61 306 5.0 6.0 0.00 0.00 0.00 67 1012.5
20260504184216 61 207 1.0 6.0 0.00 0.00 0.00 67 1012.3
20260504183711 61 298 7.0 8.0 0.00 0.00 0.00 68 1012.3
20260504183209 61 302 2.0 5.0 0.00 0.00 0.00 67 1012.4
20260504182707 61 307 6.0 7.0 0.00 0.00 0.00 67 1012.4
20260504182204 61 316 3.0 6.0 0.00 0.00 0.00 67 1012.3
20260504181701 61 332 5.0 7.0 0.00 0.00 0.00 67 1012.3
20260504181159 61 254 4.0 6.0 0.00 0.00 0.00 67 1012.1
20260504180657 61 259 2.0 5.0 0.00 0.00 0.00 66 1012.1
20260504180156 61 279 5.0 6.0 0.00 0.00 0.00 66 1012.1
20260504175653 61 273 4.0 7.0 0.00 0.00 0.00 67 1012.0
20260504175149 61 324 2.0 6.0 0.00 0.00 0.00 67 1011.9
20260504174647 61 268 5.0 8.0 0.00 0.00 0.00 66 1011.9
20260504174144 62 293 3.0 10.0 0.00 0.00 0.00 66 1011.8
20260504173641 61 258 3.0 9.0 0.00 0.00 0.00 65 1011.8
20260504173138 61 165 5.0 8.0 0.00 0.00 0.00 65 1012.0
20260504172635 61 288 3.0 8.0 0.00 0.00 0.00 66 1011.7
20260504172131 62 246 7.0 8.0 0.00 0.00 0.00 66 1011.7
20260504171628 62 285 6.0 8.0 0.00 0.00 0.00 66 1011.6
20260504171125 62 286 4.0 7.0 0.00 0.00 0.00 65 1011.7
20260504170621 62 288 7.0 10.0 0.00 0.00 0.00 65 1011.6
20260504170119 62 288 5.0 10.0 0.00 0.00 0.00 66 1011.5
20260504150958 64 274 11.0 16.0 0.00 0.00 0.00 60 1011.3
20260504150455 65 289 8.0 13.0 0.00 0.00 0.00 58 1011.1
20260504140922 66 230 12.0 17.0 0.00 0.00 0.00 60 1011.5
20260504140418 65 259 15.0 21.0 0.00 0.00 0.00 63 1011.5
20260504130343 65 249 13.0 18.0 0.00 0.00 0.00 63 1011.3
20260504120306 64 238 12.0 17.0 0.00 0.00 0.00 69 1011.6
20260504110230 65 262 15.0 26.0 0.00 0.00 0.00 63 1012.3
20260504100148 66 257 19.0 24.0 0.00 0.00 0.00 57 1012.1
20260504090111 66 238 11.0 20.0 0.00 0.00 0.00 56 1012.0
20260504081541 65 272 15.0 21.0 0.00 0.00 0.00 59 1012.0
20260504081037 66 172 8.0 25.0 0.00 0.00 0.00 58 1012.0
20260504080534 66 246 15.0 22.0 0.00 0.00 0.00 58 1012.1
20260504050346 62 284 7.0 10.0 0.00 0.00 0.00 62 1011.0
20260504045843 62 221 6.0 10.0 0.00 0.00 0.00 64 1011.2
20260504045338 62 225 8.0 11.0 0.00 0.00 0.00 64 1011.0
20260504044835 62 224 7.0 8.0 0.00 0.00 0.00 64 1010.9
20260504044333 62 199 3.0 7.0 0.00 0.00 0.00 65 1011.0
20260504043830 62 239 7.0 8.0 0.00 0.00 0.00 65 1010.9
20260504043327 61 183 1.0 11.0 0.00 0.00 0.00 66 1010.8
20260504042824 61 246 6.0 9.0 0.00 0.00 0.00 66 1010.5
20260504042320 60 175 6.0 8.0 0.00 0.00 0.00 66 1010.9
20260504041817 60 208 5.0 8.0 0.00 0.00 0.00 67 1010.9
20260504041313 60 197 6.0 8.0 0.00 0.00 0.00 67 1011.1
20260504040809 60 222 4.0 8.0 0.00 0.00 0.00 67 1010.9
20260504040307 60 239 6.0 9.0 0.00 0.00 0.00 67 1010.8
20260504035803 60 236 3.0 5.0 0.00 0.00 0.00 68 1010.7
20260504035300 60 213 2.0 5.0 0.00 0.00 0.00 68 1010.7
20260504034757 59 228 3.0 3.0 0.00 0.00 0.00 68 1010.7
20260504034255 59 271 1.0 3.0 0.00 0.00 0.00 68 1010.8
20260504033752 59 170 1.0 3.0 0.00 0.00 0.00 68 1010.6
20260504033249 59 258 4.0 5.0 0.00 0.00 0.00 67 1010.6
20260504032746 60 197 4.0 6.0 0.00 0.00 0.00 67 1010.6
20260504032243 60 240 5.0 7.0 0.00 0.00 0.00 67 1010.7
20260504031740 60 218 5.0 7.0 0.00 0.00 0.00 67 1010.4
20260504031238 59 243 5.0 6.0 0.00 0.00 0.00 68 1010.5
20260504030733 59 201 2.0 7.0 0.00 0.00 0.00 68 1010.5
20260504030230 59 210 2.0 6.0 0.00 0.00 0.00 68 1010.4
20260504025727 59 204 3.0 5.0 0.00 0.00 0.00 68 1010.6
20260504025224 59 234 2.0 5.0 0.00 0.00 0.00 68 1010.3
20260504024721 59 197 2.0 6.0 0.00 0.00 0.00 68 1010.5
20260504024217 59 249 3.0 6.0 0.00 0.00 0.00 68 1010.7
20260504023714 59 191 4.0 7.0 0.00 0.00 0.00 68 1010.4
20260504023210 59 238 3.0 3.0 0.00 0.00 0.00 69 1010.5
20260504022706 59 153 1.0 3.0 0.00 0.00 0.00 69 1010.6
20260504022203 59 237 3.0 5.0 0.00 0.00 0.00 69 1010.6
20260504021701 59 150 1.0 3.0 0.00 0.00 0.00 69 1010.7
20260504021157 59 171 2.0 2.0 0.00 0.00 0.00 69 1010.6
20260504020654 59 168 2.0 5.0 0.00 0.00 0.00 69 1010.6
20260504020149 59 225 1.0 2.0 0.00 0.00 0.00 69 1010.6
20260504015647 59 266 3.0 6.0 0.00 0.00 0.00 69 1010.4
20260504015143 60 214 1.0 5.0 0.00 0.00 0.00 69 1010.6
20260504014639 60 257 2.0 3.0 0.00 0.00 0.00 68 1010.5
20260504014136 60 234 3.0 5.0 0.00 0.00 0.00 68 1010.4
20260504013634 60 242 2.0 5.0 0.00 0.00 0.00 68 1010.4
20260504013131 60 264 3.0 6.0 0.00 0.00 0.00 67 1010.6
20260504012628 60 233 3.0 6.0 0.00 0.00 0.00 67 1010.6
20260504012126 60 226 3.0 7.0 0.00 0.00 0.00 67 1010.6
20260504011622 60 232 4.0 6.0 0.00 0.00 0.00 66 1010.5
20260504011119 60 231 2.0 3.0 0.00 0.00 0.00 66 1010.5
20260504010614 60 213 5.0 6.0 0.00 0.00 0.00 66 1010.4
20260504010110 60 219 3.0 6.0 0.00 0.00 0.00 66 1010.4
20260504005608 60 219 2.0 5.0 0.00 0.00 0.00 66 1010.5
20260504005104 60 225 3.0 3.0 0.00 0.00 0.00 66 1010.5
20260504004603 60 179 4.0 5.0 0.00 0.00 0.00 66 1010.2
20260504004100 60 187 2.0 5.0 0.00 0.00 0.00 65 1010.4
20260504003555 60 162 3.0 5.0 0.00 0.00 0.00 65 1010.4
20260504003053 60 220 1.0 3.0 0.00 0.00 0.00 65 1010.6
20260504002549 60 244 2.0 5.0 0.00 0.00 0.00 66 1010.5
20260504002047 60 197 2.0 3.0 0.00 0.00 0.00 65 1010.4
20260504001544 60 245 3.0 5.0 0.00 0.00 0.00 65 1010.6
20260504001040 60 226 5.0 6.0 0.00 0.00 0.00 65 1010.6
20260504000538 60 165 2.0 5.0 0.00 0.00 0.00 64 1010.7
20260504000035 60 198 2.0 6.0 0.00 0.00 0.00 64 1010.5
20260503235533 60 246 3.0 3.0 0.00 0.00 0.00 63 1010.6
20260503235029 60 246 2.0 5.0 0.00 0.00 0.00 63 1010.7
20260503234527 60 250 3.0 5.0 0.00 0.00 0.00 63 1010.7
20260503234026 60 262 2.0 3.0 0.00 0.00 0.00 62 1010.7
20260503233521 60 260 2.0 3.0 0.00 0.00 0.00 61 1010.5
20260503233017 60 284 2.0 3.0 0.00 0.00 0.00 61 1010.8
20260503232514 60 237 1.0 2.0 0.00 0.00 0.00 60 1010.8
20260503232011 60 236 2.0 7.0 0.00 0.00 0.00 60 1010.6
20260503231509 60 255 3.0 6.0 0.00 0.00 0.00 60 1010.7
20260503231006 60 304 3.0 6.0 0.00 0.00 0.00 61 1010.7
20260503230457 60 290 4.0 7.0 0.00 0.00 0.00 61 1010.7
20260503225954 60 259 3.0 5.0 0.00 0.00 0.00 62 1010.6
20260503225451 60 327 4.0 5.0 0.00 0.00 0.00 63 1010.4
20260503224947 60 353 1.0 5.0 0.00 0.00 0.00 63 1010.7
20260503224444 61 284 2.0 5.0 0.00 0.00 0.00 63 1010.9
20260503223942 61 343 1.0 3.0 0.00 0.00 0.00 63 1010.9
20260503223439 61 286 3.0 5.0 0.00 0.00 0.00 63 1011.0
20260503222934 61 281 3.0 6.0 0.00 0.00 0.00 63 1011.1
20260503222434 62 344 3.0 5.0 0.00 0.00 0.00 63 1011.0
20260503221931 62 257 5.0 8.0 0.00 0.00 0.00 63 1011.3
20260503221429 62 293 3.0 8.0 0.00 0.00 0.00 64 1011.2
20260503220926 62 283 3.0 9.0 0.00 0.00 0.00 64 1011.3
20260503220422 62 279 4.0 6.0 0.00 0.00 0.00 64 1011.2
20260503215919 62 254 6.0 13.0 0.00 0.00 0.00 64 1011.1
20260503215416 62 255 5.0 9.0 0.00 0.00 0.00 65 1011.1
20260503214914 62 303 5.0 8.0 0.00 0.00 0.00 66 1011.1
20260503214411 62 270 4.0 6.0 0.00 0.00 0.00 66 1011.2
20260503213909 62 273 5.0 8.0 0.00 0.00 0.00 66 1011.2
20260503213406 62 233 10.0 11.0 0.00 0.00 0.00 66 1011.3
20260503212903 62 302 8.0 14.0 0.00 0.00 0.00 67 1011.2
20260503212400 62 351 5.0 9.0 0.00 0.00 0.00 68 1011.2
20260503211857 62 272 6.0 8.0 0.00 0.00 0.00 69 1011.2
20260503211354 62 255 4.0 8.0 0.00 0.00 0.00 70 1011.2
20260503210849 63 329 6.0 9.0 0.00 0.00 0.00 71 1011.2
20260503210347 63 281 5.0 7.0 0.00 0.00 0.00 72 1011.1
20260503205842 63 300 4.0 9.0 0.00 0.00 0.00 72 1011.2
20260503205339 63 323 6.0 9.0 0.00 0.00 0.00 72 1011.0
20260503204835 63 246 4.0 13.0 0.00 0.00 0.00 72 1011.2
20260503204332 63 249 9.0 11.0 0.00 0.00 0.00 71 1011.2
20260503203829 63 248 6.0 8.0 0.00 0.00 0.00 70 1011.3
20260503203327 63 283 4.0 10.0 0.00 0.00 0.00 70 1011.1
20260503202823 63 282 5.0 8.0 0.00 0.00 0.00 69 1011.2
20260503202322 63 310 3.0 8.0 0.00 0.00 0.00 69 1011.1
20260503201820 63 353 2.0 5.0 0.00 0.00 0.00 69 1011.0
20260503201316 63 302 5.0 8.0 0.00 0.00 0.00 70 1011.2
20260503200814 63 315 5.0 7.0 0.00 0.00 0.00 70 1011.3